Theta_e
339 345 346 347 348 350 351 351 352 351 351 351 351 351 349 349 350 349 349 350 350 349 350 349 349 349 349 349 349 349 349 348 348 348 348 348 348 348 349 348 349 349 349 349 350 349 350 350 350 349 349 349 347 346 344 343 342 340 339 339 340 340 341 341 341 341 342 344 349 351 352 351 351 350 349 350 350 350 350 350 354 349 350 352 352
338 346 347 348 349 349 351 351 351 351 351 351 351 350 349 349 349 349 349 349 349 350 349 349 349 349 349 349 348 348 348 348 348 348 348 348 348 348 348 348 348 348 349 349 350 349 349 349 349 348 348 347 345 344 343 342 340 338 337 338 338 339 339 340 340 341 341 342 344 347 349 351 350 350 350 349 349 349 349 349 352 349 350 351 351
341 345 347 348 348 349 351 351 351 351 351 351 351 350 349 349 349 349 349 349 349 349 349 349 349 349 349 348 349 348 348 348 348 348 348 348 348 348 348 348 348 349 348 348 348 348 348 347 347 346 345 343 342 341 341 339 337 336 336 336 336 337 338 338 339 340 341 340 342 346 346 348 350 349 349 348 348 347 347 348 348 349 348 351 350
338 344 347 347 346 348 351 352 351 351 351 351 350 350 349 349 349 349 349 349 350 349 349 349 349 349 348 349 348 349 348 347 347 347 347 347 347 347 347 347 347 348 347 347 347 347 346 345 345 344 342 341 340 339 338 337 335 335 333 333 335 336 337 337 339 339 339 340 342 342 347 348 348 349 350 349 348 347 346 346 347 346 347 349 349
338 343 347 347 349 347 350 351 351 351 351 350 350 350 349 349 349 349 349 349 350 349 349 349 349 348 349 349 349 348 348 347 347 347 347 347 346 346 346 347 347 346 346 346 346 345 345 343 343 342 340 338 337 336 335 334 334 333 332 331 332 334 335 336 337 338 338 340 343 343 343 345 348 348 350 349 349 347 346 346 346 346 346 346 347
338 343 348 345 348 350 347 351 351 350 351 351 350 350 349 349 349 349 349 349 349 349 349 350 349 348 348 348 348 348 347 347 346 345 344 344 345 345 346 346 346 346 345 345 345 344 343 342 341 340 338 336 335 334 334 333 332 331 330 331 330 332 334 335 336 335 336 339 339 343 342 343 344 346 348 349 348 347 346 346 346 346 345 345 346
338 343 347 346 348 347 344 350 351 351 350 350 350 349 350 349 349 349 349 349 349 349 349 348 348 348 347 348 347 346 346 345 344 343 343 342 342 343 344 344 345 345 344 344 343 342 341 340 338 337 336 335 333 332 332 331 330 330 330 330 329 330 332 333 333 334 335 336 341 341 341 342 343 346 348 347 349 347 347 347 347 346 347 348 345
339 343 347 346 347 345 343 349 351 351 350 350 350 349 349 349 349 349 348 349 348 348 348 348 348 347 347 347 346 346 345 343 343 342 342 340 341 341 340 340 342 343 342 342 341 340 339 338 337 335 334 333 332 331 330 330 328 327 329 329 329 329 331 331 331 332 337 335 341 341 341 341 342 347 348 348 347 347 347 348 348 348 348 347 347
338 342 345 346 347 344 344 347 351 351 350 350 350 350 349 349 349 349 348 348 348 348 348 347 347 347 346 346 345 345 344 343 341 340 338 338 338 340 338 337 338 340 340 340 339 338 337 336 336 334 333 331 330 329 329 329 328 327 327 327 327 328 328 328 329 331 334 335 337 340 341 340 342 346 347 347 346 346 345 345 347 346 345 344 345
338 341 344 346 347 341 343 347 350 351 350 351 351 350 349 349 349 349 348 348 348 348 347 347 347 346 346 345 345 344 342 341 340 339 339 338 337 337 337 336 337 338 338 337 336 336 335 335 335 333 331 330 329 328 328 328 328 326 325 326 326 327 327 327 329 333 332 333 337 338 342 341 342 343 344 345 344 343 342 342 342 342 342 342 343
337 340 344 346 350 341 345 348 349 350 350 350 351 350 349 349 349 348 348 348 347 347 347 347 347 346 346 345 344 343 342 340 339 337 336 335 334 336 336 336 337 336 336 336 335 334 334 334 333 331 330 328 327 326 326 326 325 324 323 324 325 326 326 327 330 328 333 335 336 335 337 340 341 341 343 343 342 341 340 340 342 342 341 341 341
335 339 343 345 342 341 344 347 349 350 349 350 350 350 349 348 348 348 348 348 348 347 347 347 347 346 345 344 343 342 341 340 338 335 334 333 334 335 335 336 335 334 333 333 334 334 334 333 331 330 328 326 325 325 324 323 322 322 322 322 323 324 324 326 330 330 333 333 334 337 334 334 335 338 340 340 340 339 338 338 339 339 339 339 339
334 337 342 346 348 339 343 346 347 349 350 350 350 349 348 348 348 348 348 348 347 347 347 346 346 344 344 343 342 342 340 339 336 335 334 333 334 334 334 333 333 333 332 333 332 333 332 331 330 328 326 325 324 323 322 321 321 321 320 321 321 322 321 324 327 329 331 333 334 335 335 336 336 337 337 337 337 337 338 338 337 337 338 338 338
335 337 341 344 346 338 339 343 345 348 349 350 349 349 348 348 348 347 347 348 347 346 346 345 344 344 343 342 342 340 338 338 337 335 333 332 333 333 332 332 332 332 332 331 331 331 331 330 328 327 325 324 323 322 321 320 320 320 319 319 319 319 320 323 326 328 329 331 333 333 334 332 333 334 334 335 335 335 335 335 336 336 336 336 336
335 340 342 343 343 345 334 338 342 345 346 348 348 347 349 347 347 347 347 346 346 346 346 345 343 343 342 341 340 340 339 339 337 333 333 332 332 332 332 331 331 331 331 331 331 331 330 329 327 326 324 323 322 322 321 320 319 318 318 318 318 317 318 322 324 326 327 329 330 332 331 330 332 332 331 332 332 333 333 333 334 334 334 335 335
337 340 341 341 342 343 343 335 336 341 342 345 345 345 346 346 346 346 346 346 346 345 344 344 343 343 342 341 342 339 340 339 334 333 332 332 332 332 332 332 332 331 331 331 331 330 329 328 326 324 323 322 322 321 319 318 317 316 315 316 315 315 317 319 323 323 325 327 328 330 329 329 330 330 330 330 330 330 332 332 333 333 333 333 333
337 339 339 339 341 341 343 344 340 332 335 339 340 341 343 344 344 345 344 344 343 343 343 343 343 342 338 339 339 339 338 337 334 332 331 331 332 332 331 331 331 331 331 331 330 329 328 326 324 323 322 321 320 320 318 316 315 313 313 314 314 314 315 317 321 323 323 326 328 329 328 328 328 329 329 329 329 329 329 330 331 331 331 332 331
337 338 337 338 339 340 341 343 344 342 345 336 333 336 339 341 342 342 341 341 341 341 342 341 339 339 337 335 334 334 335 335 334 333 331 331 331 331 331 331 331 330 330 330 330 328 326 325 323 322 322 321 319 318 317 315 313 312 312 312 312 311 314 314 320 321 322 325 325 328 326 328 326 328 328 328 328 328 328 328 328 329 329 329 329
335 335 335 336 337 339 338 342 342 344 344 343 343 340 333 336 338 338 337 338 338 337 336 336 335 334 333 331 330 329 329 329 330 331 331 331 330 329 330 330 330 330 330 329 329 327 325 324 323 322 321 319 318 317 315 313 311 310 309 308 307 309 308 314 318 319 320 321 324 324 324 327 326 326 326 327 327 327 327 327 327 327 328 328 328
333 334 333 335 337 337 338 338 340 342 342 342 342 342 332 330 333 335 335 335 334 334 333 333 329 327 327 326 324 328 326 329 323 328 327 329 327 326 327 329 329 329 329 329 327 326 324 323 323 321 320 318 316 315 312 311 309 308 306 305 306 306 312 312 314 315 317 318 322 322 322 325 326 326 326 326 326 327 326 326 326 327 327 327 327
331 332 332 333 336 336 337 337 338 339 340 341 340 340 339 328 329 328 329 330 330 330 330 326 322 320 322 320 321 330 330 330 329 329 322 329 321 321 326 329 328 328 328 327 326 325 324 323 322 320 319 317 314 312 310 310 308 306 305 305 306 308 309 310 312 312 315 317 319 320 322 324 325 326 325 325 326 325 326 326 326 326 326 326 326
329 330 331 332 333 335 336 336 336 337 339 339 339 340 341 332 337 336 335 331 327 325 330 333 325 332 323 326 330 329 328 328 327 324 326 326 324 318 322 327 328 327 326 326 325 324 323 323 322 320 318 315 311 308 306 305 306 304 304 306 310 306 307 307 309 311 313 315 317 318 321 323 325 325 325 325 325 324 325 325 325 325 325 325 325
326 329 330 331 333 334 335 335 335 336 336 337 339 337 338 334 336 336 334 329 330 331 332 332 332 331 330 330 328 328 327 327 326 325 326 320 324 318 321 324 326 326 325 324 324 324 323 322 321 319 315 311 310 309 304 302 300 303 305 309 305 305 306 306 307 309 312 315 315 316 320 322 324 324 324 324 324 324 324 325 325 325 324 324 324
325 328 329 331 332 333 334 334 335 336 334 336 336 336 336 335 334 334 333 333 333 331 332 331 331 329 330 329 327 328 327 327 322 318 320 324 323 317 319 320 321 321 320 321 323 322 322 320 318 315 309 308 307 305 306 303 302 306 307 304 305 306 306 305 305 307 309 312 313 315 318 322 323 323 324 324 324 324 324 324 324 323 323 323 323
325 328 329 329 331 332 333 334 335 335 334 334 335 335 336 334 333 332 332 330 330 331 330 330 329 329 328 327 327 327 327 326 326 324 324 324 323 323 323 323 322 321 317 320 319 318 317 314 311 308 304 305 306 305 305 305 305 305 305 304 304 305 305 305 304 305 309 311 311 313 316 320 322 323 323 324 323 323 324 324 324 323 322 323 323
326 325 327 328 330 331 333 334 334 335 334 333 332 334 333 331 331 331 330 331 330 329 329 329 329 328 328 327 326 326 325 325 325 324 323 323 322 321 321 321 321 319 318 318 316 315 313 311 306 303 303 305 305 306 305 304 304 303 303 306 304 304 305 303 304 304 307 310 310 312 315 317 321 322 322 323 323 324 324 323 323 322 322 322 322
323 325 326 328 329 330 331 333 333 334 334 333 333 332 330 331 331 331 330 329 330 329 327 328 328 328 328 327 325 325 324 323 322 323 321 320 321 320 320 320 319 318 316 317 315 314 312 306 303 304 304 305 305 306 305 305 305 304 304 304 304 304 304 303 303 303 305 308 309 310 313 316 320 320 322 322 323 323 323 323 322 322 321 321 321
322 324 325 326 327 328 330 331 331 332 332 332 332 331 331 331 331 329 329 328 329 327 328 328 329 327 327 326 324 325 323 320 320 320 319 318 319 320 320 318 319 318 315 318 315 312 307 304 304 304 304 304 304 303 303 303 304 304 304 304 304 303 303 302 302 304 304 307 308 308 311 314 318 320 320 321 322 322 322 322 322 321 321 321 320
317 321 324 324 327 327 328 329 330 330 331 332 330 330 330 330 330 330 329 326 329 329 328 328 327 326 326 325 324 323 321 319 319 318 318 317 320 320 319 318 318 317 315 313 311 307 303 303 304 304 303 302 303 302 302 302 303 303 303 303 303 303 303 302 303 303 304 305 308 307 308 311 316 319 319 320 320 321 322 321 321 321 320 320 320
316 318 321 323 324 327 326 327 328 329 330 330 330 329 330 329 329 329 329 327 328 328 328 327 326 326 325 325 323 322 319 317 317 318 318 318 319 320 318 317 315 314 312 309 307 304 303 303 303 302 302 302 301 302 301 302 301 302 302 303 302 301 303 302 302 302 303 305 306 306 305 309 312 317 319 319 319 320 320 320 320 320 319 319 319
317 317 318 321 324 324 326 326 327 327 328 327 328 328 329 328 329 329 329 327 327 327 326 326 325 325 324 324 323 321 319 317 317 317 317 317 317 317 316 315 313 311 309 307 305 304 303 302 302 301 301 301 301 300 300 301 302 301 301 302 302 301 301 302 302 303 302 303 304 306 306 306 309 312 316 318 318 318 318 318 318 318 319 319 319
316 316 318 320 322 323 324 325 325 326 325 326 326 326 327 327 328 328 328 327 326 326 326 326 324 324 323 323 322 320 318 317 317 316 316 315 315 315 313 312 311 309 307 305 303 303 303 303 304 303 303 302 301 300 301 300 299 300 301 302 301 301 300 301 301 301 302 302 303 304 306 307 306 309 311 315 315 316 317 317 317 317 317 318 317
317 318 318 319 319 322 322 324 325 325 324 324 325 325 325 326 326 326 326 327 325 325 325 325 325 324 322 320 320 320 317 316 315 315 314 314 314 313 312 311 310 308 306 306 305 304 303 303 303 303 302 302 300 300 303 300 299 300 300 300 300 300 301 301 301 300 300 301 301 301 304 308 307 306 306 308 312 315 316 316 316 317 317 316 316
317 318 318 317 319 322 322 323 324 324 325 324 324 324 325 326 326 326 326 325 325 324 324 325 323 323 321 319 319 318 316 315 314 314 313 312 312 311 311 309 309 307 305 304 303 302 302 302 302 301 300 300 299 299 298 299 299 299 300 300 300 300 300 300 300 300 300 300 300 302 301 304 307 307 305 304 305 309 313 315 315 315 316 315 315
316 316 317 317 317 319 321 321 323 323 324 324 323 324 325 325 325 325 324 324 324 324 323 323 323 322 320 317 317 317 316 314 314 313 311 310 310 309 309 308 307 306 304 304 302 301 301 300 299 298 299 298 299 298 297 298 298 298 299 298 299 299 299 299 300 300 299 300 299 300 300 300 301 304 306 303 302 303 307 311 312 314 315 314 313
312 314 316 318 316 317 320 320 321 322 324 323 324 324 324 324 324 320 323 324 323 323 323 322 322 321 319 317 316 316 314 314 312 312 310 309 308 307 308 307 306 304 303 302 301 299 299 300 299 299 297 297 298 297 297 298 298 299 298 298 298 298 298 299 299 298 299 298 298 298 299 299 300 300 301 301 300 299 302 305 308 310 311 311 312
312 312 313 315 315 315 318 318 319 320 321 323 323 324 324 323 323 323 323 323 322 321 322 322 321 320 318 316 316 315 313 313 311 311 309 308 306 306 306 307 305 303 302 301 299 300 300 300 298 299 299 297 298 298 298 298 298 298 298 299 298 298 298 298 298 298 299 298 297 297 298 298 297 297 297 297 297 296 297 300 303 304 305 307 309
311 311 312 312 314 315 316 317 318 319 320 322 322 323 323 323 323 323 322 321 322 321 321 321 320 318 317 316 315 314 312 312 311 310 308 307 306 305 305 305 304 302 301 300 299 300 301 300 297 299 298 298 297 297 297 297 299 298 297 298 297 297 298 298 298 297 296 297 296 296 296 295 295 296 297 298 298 295 294 295 297 299 300 304 306
311 310 311 312 313 314 314 316 316 317 318 320 322 322 322 322 322 322 321 320 320 320 320 319 319 318 316 315 314 313 311 311 310 309 307 306 305 304 304 305 303 301 301 300 299 299 300 299 299 298 299 299 297 298 296 298 298 298 297 296 297 297 298 298 297 296 296 297 296 297 298 295 296 296 296 296 296 296 296 295 295 296 296 300 303
310 309 309 311 311 312 313 314 314 314 316 317 319 319 320 319 318 319 318 318 318 318 319 318 318 317 316 314 312 312 310 310 309 308 307 305 304 304 303 304 302 301 300 299 298 298 299 299 299 298 298 299 299 298 298 297 296 296 295 295 296 296 296 296 296 296 297 296 296 295 295 295 295 295 296 296 296 296 296 297 296 296 294 296 299
308 309 308 309 310 310 311 311 312 312 313 314 315 316 316 316 317 316 315 316 316 317 317 317 317 316 316 314 311 310 310 309 308 307 306 304 304 303 303 303 301 301 300 299 299 300 300 299 298 298 298 297 298 299 299 297 294 292 294 294 294 295 294 295 295 296 296 296 294 293 294 294 295 295 295 295 295 295 295 295 295 295 294 294 293
308 308 308 308 309 309 309 310 311 311 311 312 314 315 316 316 315 315 315 315 315 314 314 315 315 315 315 314 311 310 309 308 307 307 305 304 303 302 303 302 300 300 300 300 301 299 300 299 299 296 298 296 295 298 297 295 292 291 290 291 292 292 293 292 294 294 295 295 294 294 295 294 294 294 294 294 294 294 294 294 295 295 295 295 293
306 306 307 307 308 308 309 309 310 310 310 311 312 313 314 315 315 315 315 314 316 316 315 315 315 314 314 313 311 310 309 307 306 306 304 304 302 301 302 301 300 300 299 299 299 299 299 298 298 295 294 296 295 298 297 295 292 294 295 292 289 289 291 290 292 293 294 294 294 294 295 294 294 294 294 293 293 293 294 294 294 294 294 295 295
305 305 305 305 306 306 307 308 309 309 309 309 309 311 313 314 315 314 314 314 313 314 313 313 313 312 311 311 310 310 308 307 306 305 304 303 302 301 301 301 299 300 299 298 299 299 298 297 298 296 296 292 293 295 297 296 295 294 290 291 292 292 290 289 289 291 293 293 293 293 294 294 294 295 294 293 293 293 293 293 293 294 294 294 294
303 303 304 304 305 305 306 307 308 308 308 308 308 309 310 311 312 312 309 309 310 307 308 308 309 309 309 308 307 309 308 306 306 304 303 303 303 302 301 300 299 299 299 298 299 299 298 298 297 296 296 294 293 295 295 296 298 299 297 292 293 291 291 296 290 290 292 291 292 293 293 293 293 293 292 293 294 293 293 293 293 293 293 293 294
302 303 304 304 304 305 305 306 307 307 307 308 308 308 307 307 307 306 305 304 304 305 304 304 305 305 306 308 308 307 307 306 305 304 303 302 302 302 302 300 299 298 298 298 299 299 298 297 297 296 296 296 295 294 293 294 296 299 300 301 301 294 293 294 292 288 290 292 292 293 293 293 293 292 292 293 293 293 292 292 292 292 292 292 293
301 303 303 303 303 303 304 305 305 305 307 306 307 306 306 306 305 305 305 305 304 306 307 307 307 307 307 306 306 306 306 305 305 304 303 302 302 302 302 300 299 299 298 298 298 298 299 297 297 296 296 296 297 293 293 292 295 296 299 299 297 295 297 294 291 292 287 289 291 291 291 293 293 293 292 292 293 293 292 292 292 292 292 292 292
300 301 301 302 302 302 303 303 303 304 305 305 305 306 304 304 304 304 304 304 304 304 306 306 307 306 306 305 305 305 304 304 304 304 303 302 301 301 301 300 299 299 298 297 297 299 299 299 298 297 297 296 296 295 294 293 290 291 294 295 295 298 297 297 304 296 293 287 287 292 293 293 292 292 292 292 292 292 292 291 292 292 291 292 292
299 299 300 300 301 301 302 302 301 302 303 303 304 304 304 303 303 304 303 304 304 304 305 305 304 304 303 304 303 303 303 303 303 303 303 302 301 300 301 300 299 299 297 298 297 299 298 298 297 296 296 295 295 296 296 293 291 291 293 292 294 294 294 295 298 300 297 292 290 288 288 292 292 292 291 292 292 292 292 292 292 291 291 291 292
299 300 300 300 300 300 300 300 300 301 301 302 302 303 303 303 302 302 302 303 303 304 304 303 303 303 302 302 302 302 301 301 302 302 302 302 301 300 300 300 299 299 297 297 297 298 298 298 297 296 296 295 295 295 295 295 294 293 293 293 290 292 293 292 293 293 295 299 294 288 290 287 286 289 291 290 291 292 292 292 292 291 291 291 291
297 298 298 299 299 299 299 298 298 299 300 300 301 301 302 302 302 302 302 302 302 302 302 302 302 302 301 301 301 301 301 300 300 300 301 301 301 300 299 299 299 298 297 297 296 297 298 299 298 297 296 295 295 295 296 296 295 293 294 293 292 292 291 290 290 291 292 291 291 293 291 290 289 288 289 291 291 291 291 291 291 290 291 291 291
Wind_Speed
7 9 12 16 16 16 17 17 16 16 15 15 14 13 13 12 12 12 11 11 10 10 10 9 9 8 8 8 8 8 7 7 7 7 7 7 6 5 6 6 6 6 7 8 8 9 10 9 10 11 12 12 11 10 10 10 10 10 10 10 10 10 10 10 9 9 8 8 8 10 10 10 10 10 11 11 11 11 12 10 5 7 7 8 10
12 10 11 15 16 16 17 16 16 16 16 15 14 14 13 12 12 11 11 11 11 10 10 9 9 8 8 8 7 7 7 7 7 7 7 7 6 6 6 6 6 7 8 9 10 10 9 10 10 10 10 9 10 10 10 10 9 9 8 9 9 9 9 9 8 8 7 6 6 7 8 10 10 10 11 11 12 13 13 13 12 7 7 10 10
13 11 11 14 16 14 16 17 16 16 15 16 15 14 13 12 12 11 11 11 11 10 10 10 9 9 9 8 8 8 7 7 8 8 8 7 7 6 6 7 8 8 8 9 10 10 9 9 9 9 9 9 9 9 9 9 9 8 8 8 7 7 7 7 6 6 5 3 2 5 9 9 8 11 11 11 12 12 13 14 13 10 8 11 10
13 10 11 14 14 13 13 15 16 16 15 15 14 13 13 12 12 11 11 11 11 11 10 10 10 9 9 9 9 9 9 8 9 9 9 8 8 7 6 7 8 8 8 8 9 8 8 8 8 9 9 8 8 8 8 8 8 8 7 7 7 7 7 6 5 4 3 2 4 5 4 5 7 9 10 11 12 12 11 11 11 11 10 10 12
12 10 11 13 13 12 11 13 15 16 15 15 15 13 13 12 12 11 11 11 11 11 10 10 10 9 9 9 10 9 10 9 10 9 9 9 8 7 7 7 7 8 7 7 7 7 7 7 9 9 9 8 8 7 7 8 8 7 7 6 6 7 6 6 5 4 3 5 6 8 3 5 6 8 8 11 11 11 10 10 10 11 11 10 10
11 10 10 12 12 13 10 11 16 16 16 16 15 14 13 13 12 12 11 11 11 11 11 10 10 9 9 10 11 11 10 10 9 8 7 7 7 6 7 6 8 8 7 7 7 6 6 7 8 8 8 8 7 7 7 7 7 7 6 6 6 6 6 6 6 5 5 6 8 2 3 3 5 5 8 9 10 10 9 10 9 9 9 9 11
11 9 10 12 11 14 9 11 16 15 16 16 15 15 14 13 12 12 12 11 11 11 11 11 10 10 9 10 10 10 9 9 7 7 6 5 5 5 5 6 7 7 7 6 5 4 4 6 8 8 8 8 7 7 7 7 6 7 6 6 6 6 5 6 5 5 6 6 5 0 1 3 4 4 8 8 8 8 9 10 10 10 10 10 10
9 7 9 11 11 14 11 10 14 15 16 15 15 14 14 13 13 13 12 11 11 11 11 10 10 10 11 10 10 10 9 8 7 6 6 5 5 5 3 3 3 5 6 5 4 3 4 6 7 8 8 8 7 7 7 7 6 6 6 6 6 6 6 5 5 6 8 5 2 2 2 2 4 5 8 8 7 7 9 11 11 12 12 13 7
9 9 10 11 11 18 14 10 12 16 16 15 14 13 14 14 12 12 12 12 11 11 11 11 11 11 11 10 10 9 8 7 5 4 3 1 2 4 4 2 2 2 3 4 4 3 3 6 7 8 8 8 8 7 7 7 7 6 6 6 6 6 5 5 4 6 7 1 1 1 1 1 6 8 10 11 11 12 9 6 12 12 12 11 12
9 10 10 9 9 19 16 13 12 16 16 14 13 13 14 14 13 13 13 12 11 11 11 11 11 11 11 11 10 9 7 7 5 5 6 6 5 5 3 4 4 2 1 3 3 3 3 6 7 8 8 8 8 8 7 7 7 6 6 6 6 6 5 5 6 6 2 1 2 1 2 6 7 7 10 11 11 12 11 12 10 9 8 10 11
9 10 10 10 11 16 14 13 10 13 15 14 12 13 15 15 13 14 13 13 12 12 12 12 12 12 12 11 9 8 7 6 6 3 3 5 2 5 5 5 4 4 4 4 4 4 5 6 7 8 8 8 8 8 7 7 7 6 6 6 6 6 6 6 8 1 2 3 4 3 1 5 9 6 9 10 10 10 10 8 6 6 8 9 10
10 11 10 8 14 15 14 13 10 12 13 12 14 14 15 14 14 14 14 14 14 12 13 12 13 12 11 9 9 8 7 8 5 5 4 3 4 6 6 5 5 5 5 5 5 5 6 7 7 8 9 8 8 8 7 7 6 6 6 6 7 6 7 8 4 3 3 4 4 3 1 2 7 7 7 8 8 7 6 5 6 6 6 8 9
10 11 10 9 9 13 14 12 10 11 13 13 15 16 16 15 14 14 15 14 15 14 13 13 12 11 10 10 9 9 8 7 8 7 5 6 6 6 7 7 6 6 6 6 6 6 6 7 7 8 8 8 8 8 7 7 7 7 6 6 6 6 5 8 2 3 4 4 3 2 2 4 6 8 8 6 6 6 7 6 6 6 5 7 8
10 10 10 10 8 10 11 12 10 11 13 14 17 15 15 16 15 15 15 14 14 12 12 9 10 10 10 9 9 6 5 9 9 9 6 6 7 8 7 7 7 7 7 7 7 6 7 7 7 8 8 8 8 8 8 8 7 7 7 6 6 4 5 2 4 4 4 4 4 4 4 5 6 6 5 4 5 5 5 6 6 6 6 7 8
10 10 9 9 9 9 9 9 9 11 13 14 15 14 14 15 14 13 13 11 11 10 10 11 10 9 8 10 8 8 7 10 9 7 7 6 8 8 8 8 8 8 7 7 7 7 7 7 7 7 8 8 8 8 8 8 8 7 7 7 6 6 8 1 2 4 4 3 3 4 6 5 7 7 4 4 4 4 5 5 5 5 5 7 8
8 10 9 8 8 9 9 8 8 9 12 13 13 13 14 14 13 11 11 10 10 11 8 7 8 7 7 7 7 10 11 11 8 8 7 7 8 9 9 9 8 8 7 8 7 7 7 8 8 8 7 7 8 8 8 8 8 8 8 7 7 7 7 7 2 3 3 3 3 4 5 6 8 6 5 4 3 3 5 5 5 5 4 6 8
8 9 9 9 9 9 12 11 9 8 8 12 13 12 13 13 13 13 11 9 9 7 7 7 7 7 6 5 4 5 5 6 9 8 8 8 9 9 9 9 9 9 9 8 8 8 8 8 8 8 8 8 8 8 8 8 8 8 8 7 7 6 6 8 3 3 3 3 3 3 5 5 5 5 4 5 5 4 5 5 5 5 4 6 7
8 9 10 9 9 11 12 14 12 9 10 8 10 11 12 12 12 13 12 10 9 8 8 8 7 7 6 6 4 3 5 5 7 7 9 9 10 9 9 10 10 9 10 9 9 9 9 9 9 8 8 9 8 9 9 9 8 8 8 7 6 6 5 7 3 3 3 2 3 4 5 8 3 5 5 5 5 5 5 4 4 5 5 6 7
7 9 10 10 11 12 13 13 14 14 14 12 11 8 12 12 12 12 12 11 9 9 8 7 7 6 6 5 5 6 6 6 5 6 8 8 7 7 8 10 10 10 10 10 10 9 9 9 9 9 9 9 9 9 9 9 9 8 7 6 4 3 4 3 3 3 2 2 3 5 5 10 4 4 5 5 5 5 5 4 5 5 6 7 7
7 8 10 10 11 13 12 13 13 15 14 13 13 12 10 11 11 11 12 11 9 9 8 7 8 8 6 7 8 7 6 5 5 5 6 8 7 8 7 9 10 11 10 10 10 10 10 9 9 9 9 9 9 9 9 9 8 8 6 4 1 4 2 3 3 2 3 3 4 5 7 8 3 4 4 5 4 5 4 4 4 5 6 7 7
7 10 10 10 12 13 15 12 15 16 16 14 13 14 11 11 9 10 12 11 10 9 8 9 8 7 8 8 9 7 7 6 5 8 7 8 7 8 8 9 11 10 10 10 10 10 10 10 10 10 10 10 10 10 9 8 8 7 5 2 4 2 3 2 2 2 3 3 4 5 9 7 4 4 4 4 4 4 4 4 4 5 6 6 6
9 9 12 12 12 13 15 15 12 16 15 13 10 10 8 14 12 9 9 9 9 9 8 8 8 7 9 8 7 8 8 8 9 10 9 10 7 7 8 7 10 10 9 10 10 10 10 10 10 10 11 11 10 5 5 6 6 5 2 4 4 3 2 2 2 3 3 3 5 6 8 6 4 4 4 4 4 3 4 4 5 5 6 6 6
10 9 10 14 12 12 14 16 15 14 16 15 9 11 10 9 12 12 9 10 10 10 10 10 9 10 8 8 9 8 9 8 8 9 8 10 9 8 7 7 8 8 8 9 10 10 10 10 10 9 9 9 4 3 4 4 3 4 5 3 2 2 3 3 2 3 3 4 4 7 8 5 3 3 4 4 3 3 4 5 6 6 5 6 6
12 11 10 11 13 12 15 15 16 15 15 14 11 11 12 9 10 12 12 10 10 9 11 11 11 13 10 10 10 9 9 8 8 11 7 8 7 8 8 7 8 7 8 7 8 9 9 8 8 8 6 4 3 3 4 4 4 3 2 2 2 2 2 2 2 2 4 4 4 7 8 5 3 1 3 4 4 3 4 4 5 5 5 5 6
10 9 9 11 15 14 13 14 15 15 16 13 12 13 10 10 12 13 13 12 13 12 11 11 11 12 13 11 11 9 9 9 8 7 9 8 8 8 7 7 7 7 8 7 7 6 6 5 5 5 4 4 3 3 3 3 2 2 2 2 2 2 2 2 2 2 2 4 4 7 8 7 3 1 2 4 4 4 4 5 6 6 5 5 5
8 10 11 12 14 15 14 13 15 16 15 14 16 12 12 14 13 13 13 12 11 12 12 11 11 12 12 10 11 10 10 9 8 9 9 9 8 9 9 8 8 8 9 6 6 7 6 5 5 5 4 3 3 2 2 2 2 2 2 2 2 2 2 2 2 2 2 3 4 8 8 9 5 2 1 3 3 4 4 4 5 6 5 5 4
9 10 10 10 12 14 15 13 13 14 16 14 12 12 14 13 12 13 12 13 11 12 12 11 11 12 12 11 11 11 10 10 9 10 10 9 9 9 9 9 9 8 9 7 7 7 6 5 5 4 3 3 3 2 2 2 2 2 2 2 2 2 2 2 2 2 2 3 4 8 9 10 8 2 1 3 4 4 4 5 4 5 5 4 5
9 10 10 9 10 14 15 14 13 13 13 14 14 13 12 13 12 12 11 12 11 12 11 11 11 12 13 12 12 10 10 10 9 10 10 9 9 9 9 9 9 8 9 7 7 6 5 5 5 4 4 3 3 3 2 2 2 2 2 2 2 2 2 2 3 2 2 2 3 6 9 10 10 5 1 2 3 3 5 5 6 5 4 4 3
11 11 9 10 11 11 15 16 14 15 13 13 14 12 12 12 13 14 13 11 11 10 10 11 11 11 12 12 14 11 10 10 9 10 9 9 9 9 9 8 8 8 9 7 7 6 6 5 5 5 4 4 4 3 3 3 2 2 2 2 2 2 2 2 2 2 1 1 2 4 8 10 11 10 2 1 2 2 3 3 3 4 5 4 3
13 10 10 10 10 12 15 16 16 14 13 13 12 12 11 12 14 14 11 10 11 10 11 10 10 10 11 14 14 11 10 10 10 9 10 10 9 9 9 8 8 7 8 7 7 6 6 5 5 5 5 4 4 4 3 3 2 2 2 2 2 2 2 2 2 2 2 1 3 4 7 9 10 11 7 2 1 1 3 2 3 3 4 5 4
10 12 11 10 10 12 13 15 16 14 12 12 12 13 12 12 12 11 11 11 11 10 10 10 10 10 11 13 14 12 10 10 10 10 9 10 9 9 9 8 8 7 7 6 6 6 6 6 6 6 5 5 4 4 3 4 3 2 2 2 2 1 2 2 2 2 2 2 2 3 4 7 9 11 11 6 5 3 2 2 1 1 3 5 5
11 12 11 10 11 14 14 15 16 15 14 14 12 12 12 12 11 11 11 11 12 11 10 10 11 10 12 13 12 11 10 10 10 10 10 10 9 9 9 8 8 7 7 6 6 6 5 5 5 4 5 4 4 4 3 4 3 3 2 2 1 1 2 2 2 2 2 2 2 3 3 3 8 11 13 10 8 7 6 6 3 1 1 3 3
10 12 12 12 13 13 13 15 16 15 16 16 13 12 12 11 11 11 10 10 11 11 11 11 11 10 11 12 12 12 11 10 9 10 10 9 9 9 9 8 7 7 7 7 7 5 5 5 5 4 4 4 4 4 3 3 3 3 3 2 2 2 2 2 2 2 3 2 2 2 3 4 4 8 11 12 12 8 8 8 7 6 4 3 4
8 8 11 12 10 8 9 10 13 16 16 15 13 12 12 11 10 10 9 10 10 10 10 10 10 10 10 11 12 12 11 10 9 10 9 9 9 8 9 8 7 8 7 7 7 6 6 6 6 5 5 5 5 4 4 3 3 3 3 3 2 2 2 2 2 3 3 2 2 2 3 3 4 3 4 10 12 11 10 10 9 8 7 5 4
7 7 9 11 12 9 8 9 11 14 13 14 14 12 11 11 11 10 10 10 10 10 10 10 10 10 10 10 12 12 12 11 10 9 10 9 8 8 8 8 8 8 7 7 7 6 6 7 6 7 6 5 5 5 5 4 4 4 3 3 2 2 2 2 2 3 2 2 2 2 2 2 2 3 3 3 6 10 10 10 10 10 8 7 5
11 9 8 8 11 11 10 10 11 15 14 14 13 12 11 11 10 10 9 11 10 10 10 10 10 10 10 9 12 12 12 12 11 10 9 9 8 8 8 8 9 8 7 7 7 7 7 6 7 7 7 6 6 5 5 4 4 4 3 3 3 3 3 2 3 3 3 3 2 3 2 2 2 3 2 3 4 5 8 8 9 10 9 7 6
8 9 8 7 9 11 10 12 12 14 14 13 13 12 10 10 10 10 10 10 10 10 10 10 10 10 9 9 11 11 11 12 11 10 9 10 8 8 8 9 8 8 8 8 8 7 7 6 7 6 6 7 7 6 5 5 5 5 3 3 2 3 2 2 4 3 2 2 3 3 2 2 2 3 2 2 4 4 6 7 8 9 9 7 6
7 7 8 7 7 7 8 9 9 10 11 11 12 11 10 9 9 9 10 10 9 9 9 9 9 9 9 9 10 11 10 12 11 10 9 9 8 8 8 9 9 8 8 8 8 7 7 7 8 7 7 7 7 7 7 6 4 4 4 3 3 2 2 2 3 3 3 3 3 3 3 3 3 3 2 2 2 4 4 5 7 8 8 7 6
6 6 5 5 5 5 5 6 7 7 9 9 9 10 9 9 8 8 8 9 8 8 8 9 9 8 9 9 9 10 10 12 11 11 10 9 9 8 8 9 8 8 8 8 8 8 8 8 8 8 6 6 6 7 7 5 5 4 4 4 3 2 2 2 3 3 3 3 4 3 2 3 3 3 3 2 2 2 3 4 3 3 3 5 5
7 6 6 3 3 4 4 3 5 7 7 7 7 7 7 8 8 8 8 8 8 8 9 9 8 9 9 9 9 9 10 11 11 11 11 10 9 8 8 8 8 8 8 9 9 9 10 10 9 10 9 5 4 6 6 7 6 5 5 4 3 3 2 2 4 4 3 4 4 4 4 4 4 4 3 2 3 3 2 2 2 2 4 3 4
10 9 7 5 3 3 3 4 4 6 6 7 7 7 8 8 8 9 9 8 8 9 8 9 9 8 9 10 10 9 10 10 11 10 10 9 8 8 8 8 8 8 8 9 9 9 9 9 8 8 10 7 5 6 7 7 8 5 4 4 3 3 3 3 4 4 4 4 4 5 4 4 4 4 4 3 3 3 3 3 3 3 3 4 3
12 12 10 9 6 5 4 3 3 5 6 7 6 7 7 7 7 8 8 7 8 8 8 8 8 7 8 8 8 8 9 9 9 10 10 10 9 9 8 8 9 8 8 8 9 8 9 9 8 7 7 10 7 8 8 9 6 7 6 5 4 4 5 5 5 5 5 5 5 5 4 5 5 5 4 4 4 4 4 3 3 3 3 3 4
12 13 13 12 10 7 5 4 2 3 4 6 6 6 6 7 7 6 6 6 6 6 7 7 7 8 8 7 7 7 8 8 8 9 8 9 9 9 8 8 10 9 9 9 10 10 10 11 11 9 8 7 6 7 9 10 6 7 5 4 4 4 4 4 6 7 6 5 5 5 5 5 5 5 4 5 5 4 4 3 3 3 3 3 3
11 12 14 14 10 10 9 7 5 3 3 4 5 5 5 5 5 6 4 5 4 4 5 5 6 7 7 6 6 7 8 7 8 9 8 8 9 10 8 8 10 10 10 10 11 11 11 10 11 11 10 9 8 8 9 11 6 9 7 7 5 4 3 7 8 7 8 7 6 6 6 5 6 4 4 4 4 4 4 4 4 4 4 3 3
13 13 13 13 10 13 12 10 7 5 3 3 3 4 4 4 3 3 1 2 3 2 4 6 7 6 6 7 8 8 8 8 8 9 9 9 9 9 8 8 9 10 9 9 10 11 12 12 14 12 13 11 10 6 9 11 10 7 5 5 2 3 6 1 8 4 7 7 8 6 6 6 6 6 4 4 3 4 4 4 5 4 4 4 4
15 13 12 14 14 13 13 11 8 7 6 5 3 3 4 4 4 5 5 6 7 7 8 8 7 8 9 7 7 9 10 9 9 10 10 9 9 9 8 8 9 9 10 10 9 9 12 13 14 13 14 13 11 8 8 9 11 9 6 3 1 2 5 5 7 3 5 6 6 7 6 7 6 6 5 5 5 4 5 5 5 5 5 5 4
14 12 12 14 15 14 13 12 9 8 7 7 6 4 5 5 6 7 6 7 7 6 6 6 6 6 6 8 8 9 10 10 10 10 11 12 11 10 9 9 9 9 10 10 10 12 11 13 12 13 13 12 10 11 12 9 4 6 6 4 3 2 3 7 5 5 4 4 7 7 8 7 7 7 6 6 6 6 5 5 6 5 5 5 5
13 12 13 14 16 15 15 14 11 9 9 8 7 5 5 5 6 7 6 7 7 8 7 5 5 5 5 6 7 7 8 10 10 10 10 11 11 11 11 10 10 10 9 11 11 10 7 10 12 14 11 13 13 12 11 10 13 12 12 5 4 2 4 5 3 5 4 6 6 5 5 7 7 7 7 7 7 7 5 6 6 6 5 6 5
12 13 14 14 14 14 14 14 13 11 10 11 8 7 5 6 6 6 6 6 7 7 6 6 4 4 5 5 6 6 7 9 10 10 10 11 10 11 11 11 11 11 10 9 11 10 12 12 13 13 14 13 12 12 10 12 12 11 10 10 6 6 4 4 3 1 3 4 5 9 7 6 6 7 8 7 6 6 6 6 5 6 6 6 6
11 13 14 14 14 13 14 15 15 11 11 12 10 9 8 6 6 7 8 8 7 6 6 6 6 5 6 6 6 6 6 7 9 10 10 11 10 11 11 12 12 12 10 11 12 11 11 13 15 15 15 14 12 13 13 10 12 12 12 10 12 7 5 5 4 4 4 4 2 8 8 10 9 8 8 8 8 7 6 5 6 6 5 6 6
12 14 14 13 12 13 13 15 14 12 12 12 12 11 9 8 7 8 9 9 8 8 8 7 6 6 6 6 6 6 6 6 7 9 10 10 11 11 11 11 10 10 11 11 13 12 10 10 11 14 15 15 13 14 13 11 10 12 11 11 13 13 14 12 11 8 6 4 4 4 6 8 10 4 8 8 8 7 6 6 6 6 6 6 6
Wind_Direction
179 161 145 146 155 165 171 174 173 174 173 174 173 171 171 170 166 168 165 162 161 160 158 157 154 153 151 149 144 142 138 137 135 132 126 127 123 123 121 115 112 117 119 119 118 116 110 108 108 102 86 79 80 78 75 74 70 67 65 63 59 58 55 57 56 56 51 42 60 62 61 75 72 67 64 58 53 41 30 20 353 83 69 67 68
163 161 147 152 156 166 170 174 175 175 174 174 173 173 173 172 169 170 169 167 166 166 165 165 165 164 162 159 155 149 146 139 133 128 125 122 121 125 125 120 115 109 114 115 114 112 110 110 105 88 85 86 81 78 75 73 70 69 70 71 69 64 63 58 53 50 47 45 53 70 66 70 79 76 71 65 59 49 35 28 22 68 63 62 63
153 163 149 153 158 166 171 173 176 177 177 175 175 175 174 173 173 172 174 173 173 172 173 175 175 171 169 168 162 155 145 138 133 125 122 112 109 108 117 121 117 115 116 118 115 112 111 100 88 91 86 83 80 78 78 74 71 64 61 62 66 70 71 71 64 52 55 35 352 112 94 68 69 88 80 73 67 59 48 41 36 51 63 61 63
155 164 151 149 158 170 175 174 177 176 179 178 175 175 177 175 174 178 178 178 179 177 179 183 181 177 173 170 165 154 145 138 129 122 112 102 97 103 111 118 120 119 121 121 115 110 106 110 104 99 96 88 86 82 83 79 74 70 63 56 52 53 58 63 61 62 31 1 274 240 133 100 87 85 92 86 79 71 67 64 63 64 65 64 59
160 160 149 154 163 173 180 177 178 177 180 180 176 176 177 178 178 180 185 184 186 184 184 184 188 183 176 170 160 151 142 136 127 119 109 102 100 102 110 116 119 125 126 121 112 109 117 112 107 101 95 88 84 82 78 77 74 73 70 64 56 48 41 40 32 19 357 313 292 270 121 102 92 84 91 92 87 85 81 75 69 74 73 67 63
165 162 151 159 167 171 184 182 182 180 181 181 177 177 178 180 182 185 186 189 191 187 188 187 187 185 177 166 157 149 145 140 129 120 115 115 113 105 113 123 127 123 114 108 106 116 121 116 104 103 99 95 90 86 79 76 76 75 71 68 64 55 42 25 13 0 322 292 287 284 80 101 84 87 82 90 90 91 89 80 78 76 69 72 78
166 164 159 163 168 172 183 188 184 185 185 183 177 180 182 184 183 185 190 192 193 190 189 188 189 176 172 164 157 149 146 143 140 137 130 115 120 118 101 116 120 121 110 97 101 124 117 108 104 101 97 95 93 85 83 78 75 71 71 70 65 59 45 30 7 338 310 285 242 206 109 65 99 92 86 79 83 82 80 83 82 79 64 47 67
165 169 166 166 174 158 177 191 188 186 188 186 182 182 184 186 186 185 189 192 194 191 189 186 183 170 166 164 158 155 149 146 152 142 136 145 142 113 72 31 136 129 115 112 114 112 115 105 102 101 98 93 88 86 82 77 74 71 69 69 66 57 45 28 358 326 303 279 360 329 67 110 102 84 76 78 76 82 89 88 80 78 65 55 46
170 176 172 168 178 149 169 190 191 189 189 188 184 184 184 186 183 186 189 190 194 192 189 184 175 171 164 162 158 155 154 152 155 158 96 157 155 157 196 189 261 332 206 149 136 139 131 112 105 102 100 95 89 85 82 78 73 70 64 61 60 55 40 18 345 312 265 316 230 80 314 109 67 85 80 81 73 65 64 86 98 82 61 58 61
171 178 175 170 171 150 162 182 196 191 191 189 185 184 185 183 179 184 188 188 188 189 183 177 171 168 163 163 163 158 163 159 164 171 175 198 200 230 211 211 225 141 171 174 176 170 165 117 110 104 101 97 92 89 86 82 78 71 67 56 53 48 34 358 326 294 359 128 80 98 7 329 105 83 78 76 71 63 61 56 57 62 69 71 68
173 177 180 177 147 154 157 175 198 195 191 190 184 184 186 180 178 183 183 183 179 181 175 172 167 167 170 172 167 170 172 190 177 174 118 310 163 230 223 213 184 194 178 194 176 195 151 123 114 108 102 98 96 94 91 87 84 78 69 61 53 44 26 355 305 100 31 40 49 79 127 317 86 80 80 78 77 69 62 61 68 85 80 76 74
179 178 179 174 130 154 163 176 194 194 189 185 184 184 185 180 180 179 181 178 176 174 172 170 173 178 184 182 181 187 191 212 185 145 154 200 204 220 214 207 202 203 199 198 191 186 135 121 116 112 106 104 101 97 95 94 92 85 76 65 55 45 21 347 339 74 65 75 57 12 111 199 64 84 80 73 69 71 59 57 59 62 70 74 78
181 179 177 173 142 148 164 176 195 197 186 181 185 187 185 181 179 180 180 177 178 172 176 180 187 187 192 194 198 201 191 170 145 158 180 194 204 211 210 209 209 211 206 200 190 177 138 130 125 120 116 113 109 107 104 102 96 89 81 73 62 47 28 352 63 63 65 60 70 56 71 79 91 60 68 62 66 55 48 43 50 48 56 62 71
181 181 183 179 156 147 162 182 194 196 182 180 184 186 183 181 182 179 183 177 179 179 178 185 192 191 196 208 215 218 193 167 187 207 169 200 211 218 209 205 206 206 202 193 190 166 145 134 126 122 120 115 113 111 111 106 100 94 85 75 60 45 348 341 56 77 70 80 51 50 40 59 47 51 47 71 52 48 49 40 42 39 36 53 55
185 187 182 181 164 158 166 188 195 190 176 178 181 179 180 180 179 182 183 184 185 184 186 185 191 205 205 218 212 212 203 197 210 151 176 201 214 217 210 206 203 200 198 189 179 153 144 138 132 125 120 118 112 108 104 99 95 89 82 69 56 22 348 49 60 87 84 66 81 63 57 66 39 61 45 48 63 50 40 35 36 37 31 51 57
190 187 184 183 175 171 170 183 201 188 177 178 182 182 178 178 180 181 189 193 192 198 198 187 188 201 218 226 205 203 202 220 159 172 180 199 215 215 208 203 199 197 188 186 171 153 149 137 128 123 120 117 113 106 99 95 89 82 75 67 49 25 5 328 101 98 89 80 79 84 88 69 39 63 52 52 41 46 45 36 34 32 37 50 60
190 188 189 185 185 179 188 189 188 188 187 184 182 185 183 182 182 182 190 194 199 197 195 198 201 207 197 201 205 211 204 186 188 192 197 200 211 208 205 201 195 190 185 179 166 155 144 134 130 130 126 121 115 108 101 93 86 82 76 67 52 40 6 331 100 71 75 69 48 60 57 58 49 57 63 68 68 58 43 39 39 44 44 55 60
193 190 196 192 191 193 190 195 188 190 190 191 194 192 189 187 185 184 189 189 194 200 201 199 193 199 193 191 188 183 166 177 174 184 196 204 208 202 199 196 192 185 182 171 161 151 144 140 138 135 130 123 116 110 102 94 88 83 76 66 58 34 8 330 92 89 77 78 78 56 67 359 44 58 56 58 60 62 56 49 50 52 56 60 61
201 199 201 199 199 200 197 198 197 199 199 198 197 190 195 190 188 188 188 189 193 194 190 180 177 174 176 159 138 138 144 146 153 179 194 196 207 195 194 197 191 184 179 168 160 154 148 145 144 138 131 125 118 110 105 98 95 91 83 76 62 34 326 299 68 91 114 87 78 70 34 352 104 66 54 61 63 66 72 71 64 66 64 63 66
210 204 204 206 203 198 205 200 201 201 204 201 202 197 189 193 190 187 188 190 184 180 174 172 169 161 149 137 131 132 134 140 142 166 188 194 196 196 187 201 191 183 176 165 159 155 153 152 147 140 134 125 116 108 105 105 104 99 97 91 83 270 242 84 88 83 83 57 48 72 6 2 18 95 77 68 69 72 77 78 82 75 72 72 70
205 209 208 204 208 206 204 204 203 204 205 205 208 206 182 185 192 191 186 185 176 173 172 160 154 141 140 136 139 170 177 183 154 203 181 201 182 198 177 201 189 183 170 166 161 159 158 154 148 144 136 124 108 97 96 104 104 107 108 153 259 243 77 83 92 86 74 85 72 46 360 13 25 76 84 78 75 79 74 88 86 79 74 78 77
201 205 209 206 204 207 205 206 204 205 206 208 208 205 185 182 196 190 192 181 176 170 168 179 169 168 147 146 179 195 207 207 204 205 203 205 177 184 180 190 187 181 166 167 164 161 160 156 150 145 133 123 127 123 103 87 97 115 153 246 245 99 106 104 97 91 86 87 74 19 5 16 33 71 92 87 93 92 95 93 86 78 80 75 72
203 203 205 205 205 204 204 205 205 205 208 208 204 213 191 182 195 201 197 189 184 181 191 190 187 193 177 182 196 204 203 202 202 191 205 190 186 168 174 175 175 165 158 164 164 162 158 153 147 140 137 145 176 146 136 146 144 192 223 229 90 86 93 100 104 95 77 52 90 13 4 12 27 83 103 118 116 121 116 96 94 93 89 82 84
208 200 201 200 203 205 204 205 206 206 206 208 206 209 208 184 201 209 208 198 196 190 199 195 202 208 190 200 203 202 196 206 178 172 171 179 162 160 163 155 147 143 147 154 162 162 159 154 148 141 146 190 189 168 149 168 176 183 167 128 116 112 115 102 86 94 99 68 65 8 3 9 37 64 114 126 126 132 126 119 103 103 94 92 91
207 201 199 198 201 204 201 204 205 205 206 207 208 209 205 205 209 209 211 208 209 203 200 199 200 202 199 203 202 195 193 203 174 170 185 184 178 177 167 171 170 170 155 174 172 163 165 160 152 174 192 197 189 174 165 160 161 158 130 106 115 117 109 88 85 94 101 93 59 6 6 3 14 53 126 122 133 135 130 126 119 102 89 87 87
202 203 201 199 198 200 200 200 202 205 204 206 209 208 207 216 212 213 210 209 204 203 206 199 197 198 199 197 197 195 196 197 178 180 187 184 179 182 181 183 180 178 178 180 181 170 183 172 176 192 195 185 185 167 175 156 143 138 111 90 94 110 86 84 89 86 84 92 71 13 5 358 358 47 132 127 127 140 136 133 107 87 100 107 107
211 210 205 205 197 198 201 199 200 203 205 203 206 210 214 219 217 212 209 210 201 202 204 197 195 194 197 194 197 195 192 196 179 183 187 187 183 183 182 184 181 181 183 188 181 175 186 175 181 191 187 169 156 139 118 89 94 98 98 99 79 77 87 86 82 75 74 88 77 22 5 360 0 8 114 165 152 154 145 137 125 118 100 105 109
221 216 210 206 198 197 197 198 200 199 203 203 206 208 208 209 211 211 205 205 199 202 197 194 191 194 194 194 198 192 188 192 184 185 188 189 187 184 181 183 181 179 182 189 174 176 181 177 179 179 167 159 153 149 137 130 114 105 102 93 84 76 72 76 74 68 88 105 103 36 5 5 3 358 36 148 165 158 164 170 147 152 125 106 126
234 225 213 210 203 195 195 199 199 199 199 200 205 208 208 207 207 210 202 193 198 196 194 191 192 193 194 194 199 192 191 190 186 186 185 190 185 183 182 183 179 178 180 181 174 175 179 175 173 170 171 165 155 157 141 134 146 121 108 103 101 82 82 90 87 79 85 112 99 54 15 13 7 4 353 104 159 180 162 140 128 122 130 129 105
230 229 219 212 206 194 196 199 200 201 198 198 203 204 205 205 210 210 199 191 199 196 193 194 194 193 194 199 198 196 190 189 186 185 184 186 185 183 183 181 180 177 176 177 176 176 175 171 172 170 167 164 165 154 153 140 124 119 122 112 109 122 112 104 118 132 127 95 96 103 40 17 15 13 11 51 115 153 134 121 152 158 146 146 140
232 229 223 215 204 197 198 198 200 196 198 199 199 205 206 207 203 205 201 197 196 197 196 196 194 195 196 196 196 196 188 189 186 186 185 185 186 182 183 179 179 175 175 174 173 176 174 175 171 169 166 166 162 151 164 144 138 131 112 124 123 116 117 113 129 120 127 129 122 120 95 44 27 23 19 58 50 86 110 127 93 164 166 166 165
222 226 221 213 203 201 198 199 198 195 196 202 199 204 206 208 204 204 204 200 195 198 199 198 197 194 194 190 193 190 189 190 188 186 186 183 185 181 181 179 180 172 175 171 166 174 171 166 161 167 162 161 147 153 156 151 151 144 131 124 130 135 144 134 130 145 123 117 132 144 142 101 51 39 31 41 75 74 77 70 81 61 184 179 152
217 218 212 208 207 201 201 200 198 196 196 198 198 200 204 204 204 207 205 196 201 197 201 201 197 194 192 187 189 189 188 189 189 187 185 185 183 180 181 180 178 170 171 166 158 163 162 152 150 150 154 153 147 144 146 155 151 140 150 153 153 150 138 154 141 141 141 152 147 145 140 144 108 67 45 38 44 68 67 58 50 55 66 130 127
222 212 207 209 202 197 197 196 197 199 197 199 198 197 199 200 202 203 201 195 201 199 202 201 196 196 192 186 187 189 188 190 185 185 183 185 183 180 180 177 176 165 165 156 162 166 167 161 158 164 162 162 159 154 162 162 155 149 152 152 178 160 158 165 153 138 149 157 154 142 148 156 159 121 84 55 41 45 57 59 59 61 61 69 112
240 230 209 205 199 193 183 197 191 202 194 203 202 201 197 197 197 198 198 196 199 201 203 201 200 198 191 186 186 187 188 188 186 182 184 186 182 178 180 176 170 162 162 164 168 174 170 170 164 171 161 173 166 162 169 168 159 159 153 161 168 151 163 157 138 137 159 151 150 153 155 156 156 140 146 122 68 39 47 56 58 59 64 73 93
261 252 233 204 210 201 185 194 190 198 200 200 201 202 202 201 199 197 197 193 199 203 202 202 202 198 197 190 186 189 188 187 186 184 182 189 185 181 182 176 167 162 166 164 175 175 175 171 173 172 162 175 167 166 175 168 161 156 154 164 147 166 170 161 161 166 158 167 156 158 160 151 160 154 161 141 108 62 49 55 60 55 54 61 68
274 270 259 229 219 215 190 195 193 197 202 199 201 202 203 202 202 202 204 197 200 201 204 204 204 200 198 195 185 185 184 186 186 185 185 188 188 184 182 176 162 166 166 166 178 178 171 171 171 179 172 168 169 166 171 163 155 147 142 142 142 169 168 168 169 161 163 168 151 158 143 120 93 121 172 131 134 128 67 65 63 55 40 46 67
304 281 275 261 243 232 208 198 204 199 202 201 199 201 203 203 204 204 204 207 202 204 207 206 208 203 200 199 184 182 183 186 186 184 188 188 189 186 181 170 163 168 167 168 178 177 171 172 166 176 178 170 170 169 169 160 139 144 139 141 151 181 169 169 174 162 181 167 164 167 160 155 160 174 144 154 142 137 135 102 97 72 41 38 64
328 316 283 269 259 248 228 199 203 203 202 202 199 202 205 207 208 207 202 208 205 207 208 210 209 204 204 197 183 182 181 186 187 184 187 187 190 187 180 168 164 171 167 171 175 177 173 178 169 166 178 180 172 168 165 144 136 129 136 137 150 161 172 179 171 190 184 176 171 161 164 168 160 165 152 158 164 141 154 161 171 150 85 42 60
354 354 345 312 255 251 234 212 200 202 201 202 197 200 203 206 207 208 212 210 208 205 209 214 207 206 203 195 186 183 181 189 189 186 186 189 187 186 181 159 167 175 172 175 178 178 173 175 175 163 163 157 175 162 152 137 130 126 125 131 150 169 180 182 199 194 190 176 169 175 182 177 171 166 163 168 151 158 159 170 156 147 132 99 70
25 20 13 0 323 271 237 228 193 196 192 194 199 197 202 209 215 217 219 212 211 212 212 214 216 212 205 198 187 185 185 185 191 187 189 189 189 185 179 163 169 178 178 181 181 177 173 173 165 166 163 153 162 158 148 143 137 134 148 159 166 176 179 215 205 202 198 184 183 188 183 184 180 166 173 173 153 169 171 174 173 171 154 143 138
22 24 24 13 2 341 301 271 211 194 202 203 201 204 209 210 212 219 223 223 216 211 216 215 217 217 213 206 195 187 186 184 185 191 190 190 189 188 181 165 170 181 185 180 179 172 171 174 164 156 179 170 170 168 160 150 176 174 163 173 185 181 187 205 212 209 204 197 191 191 186 191 180 176 170 157 167 173 179 177 175 169 163 170 159
22 26 20 17 16 7 356 324 290 223 212 209 208 213 215 220 224 231 225 233 232 230 227 225 218 220 216 210 203 192 190 188 185 190 189 194 192 191 182 166 175 178 179 181 180 175 177 177 174 169 166 187 170 171 173 188 166 172 159 148 193 177 183 215 210 213 202 200 192 195 194 191 182 179 171 170 171 178 179 177 167 169 174 179 166
17 24 25 22 18 10 2 350 332 300 267 226 221 228 229 232 230 240 254 243 243 231 230 229 226 221 218 207 206 200 192 191 190 188 191 195 196 197 184 174 179 183 186 183 184 181 178 181 182 183 169 163 185 176 190 200 191 163 177 199 178 185 207 213 192 198 190 197 192 195 193 191 183 186 181 181 177 172 174 169 169 173 176 183 175
12 19 25 24 15 12 5 357 348 337 319 295 231 232 232 220 210 201 164 231 241 241 220 223 221 215 211 211 208 197 196 197 193 192 192 196 202 205 194 180 176 186 188 192 189 188 182 186 184 184 184 174 179 165 189 200 217 213 177 159 168 202 225 130 152 171 174 192 200 201 190 194 186 190 196 188 170 173 164 163 176 172 177 178 185
10 10 24 26 20 16 10 5 1 357 355 337 308 268 245 228 219 223 230 227 236 225 226 228 218 213 216 216 209 202 200 199 198 194 192 192 201 207 205 191 184 186 192 199 196 184 189 189 187 189 189 195 179 152 178 205 215 228 262 277 347 192 186 143 155 178 165 204 190 200 199 199 193 192 201 191 179 185 181 175 177 174 176 181 182
7 3 20 27 22 17 13 11 12 5 11 353 336 302 276 265 255 249 251 256 257 251 244 241 235 226 218 213 207 204 203 203 204 201 194 191 195 200 203 205 194 195 196 204 202 197 191 193 186 196 193 190 180 186 182 181 193 248 234 230 226 209 286 145 193 113 181 191 207 190 205 198 204 206 203 202 183 194 182 177 181 174 177 180 179
5 8 22 26 20 15 14 14 12 12 15 2 348 331 307 298 284 274 267 265 263 272 277 271 249 239 223 212 209 209 203 205 207 205 202 197 197 201 202 201 201 201 197 208 209 202 183 193 195 198 195 196 192 193 183 176 180 209 211 205 220 252 283 304 277 194 162 156 192 202 199 194 202 214 211 205 197 193 185 185 177 179 176 180 178
14 19 25 27 22 16 15 16 14 14 11 6 358 346 325 313 306 292 281 276 276 275 275 272 263 237 228 214 211 209 202 206 211 209 206 202 200 206 205 203 202 203 202 208 212 209 200 189 190 193 200 199 200 200 189 188 192 196 175 214 212 208 221 248 271 318 218 163 170 179 186 176 205 218 214 210 205 193 193 184 182 178 182 172 180
21 27 30 28 26 19 16 17 16 12 9 9 3 356 342 324 310 303 298 295 293 288 277 271 267 249 237 222 214 215 212 205 209 214 211 208 204 205 211 208 207 204 201 204 211 217 213 206 201 201 203 203 204 204 204 195 197 200 194 186 198 204 215 221 233 229 272 259 192 186 174 171 193 217 198 202 202 195 186 185 178 185 184 172 179
28 29 28 27 24 21 15 19 15 11 10 8 6 2 354 342 329 321 312 302 298 293 290 284 276 270 261 240 227 225 218 212 206 212 215 211 210 206 210 210 210 209 210 205 208 209 206 200 200 205 207 208 206 206 208 205 194 203 200 198 198 197 198 201 207 204 204 205 232 180 174 185 200 168 195 188 189 190 183 185 187 185 189 178 176